Volver al catálogo

TATIANA

ActivoCienciaPO
NORAD 28523·PAYLOAD·🇷🇺 Russia

Lanzado Jan 20, 2005 desde Plesetsk Cosmodrome

Loading…

Próximos Pases (próximas 24 horas)

TLE

ActualizadoSource: Space-Track

Época: Sep 14, 2026, 13:05 UTC

1 28523U 05002C   26257.54573811  .00000092  00000-0  62887-4 0  9999
2 28523  82.9533 337.9611 0039038  84.2246 276.3366 13.88091652 96350

Sigue TATIANA en tiempo real con AllMySat

Download on the App Store